Preview of NWS' New Version of Forecast
This preview is not operational and should not be used for support decisions.

Regional Weather Roundup (RWR)

Issued by National Weather Service (NWS)

                            
000
ASUS43 KDMX 180306
RWRIA 

WEATHER ROUNDUP FOR IOWA
NATIONAL WEATHER SERVICE DES MOINES IA
900 PM CST SUN FEB 17 2019

NOTE: "FAIR" INDICATES FEW OR NO CLOUDS BELOW 12,000 FEET WITH NO
SIGNIFICANT WEATHER AND/OR OBSTRUCTIONS TO VISIBILITY.

* - THESE STATIONS ARE NOT NWS STATIONS...THUS NOT UNDER NWS
QUALITY CONTROL.  THEY ALSO DO NOT REPORT WEATHER SUCH 
AS PRECIPITATION OR FOG.  

IAZ001>003-012>014-020>022-031>034-043>046-180400-
   NORTHWEST IOWA
  
CITY           SKY/WX    TMP DP  RH WIND       PRES   REMARKS
CARROLL *      CLOUDY    18  18 100 NW15      30.07R WCI   3          
CHEROKEE *     LGT SNOW  19  18  96 N5        30.11R WCI  12          
DENISON *      LGT SNOW  18  16  93 NW9       30.10R WCI   6          
LE MARS *      CLOUDY    18  16  93 NW13G20   30.14R WCI   4          
ORANGE CITY *  LGT SNOW  18  16  93 N9        30.11R WCI   6          
SHELDON *      LGT SNOW  18  18 100 N12       30.10R WCI   5          
SIOUX CITY     LGT SNOW  17  14  88 NW15      30.15R FOG     WCI   2  
SPENCER        LGT SNOW  21  16  81 N12       30.09R WCI   9          
STORM LAKE *   LGT SNOW  18  18 100 N13       30.07R WCI   4          
$$
 
IAZ055>058-069>071-079>083-090>094-180400-
   SOUTHWEST IOWA
  
CITY           SKY/WX    TMP DP  RH WIND       PRES   REMARKS
ATLANTIC *     CLOUDY    16  16 100 NW12      30.09R WCI   3          
AUDUBON *      FLURRIES  18  12  79 CALM      30.07R                  
CLARINDA *     FLURRIES  21  19  93 NW7       30.13R WCI  13          
COUNCIL BLFS * CLOUDY    18  18 100 NW14G20   30.11R WCI   4          
CRESTON *      FLURRIES  19  18  93 NW17      30.06R WCI   4          
HARLAN  *      CLOUDY    14  12  92 NW10      30.09R WCI   1          
LAMONI         CLOUDY    22  17  81 NW16      30.03R WCI   8          
RED OAK *      FLURRIES  19  18  93 NW9       30.11R WCI   9          
SHENANDOAH *   CLOUDY    21  18  86 NW9       30.13R WCI  11          
$$
 
IAZ047>049-059>061-072>074-084-180400-
   CENTRAL IOWA
  
CITY           SKY/WX    TMP DP  RH WIND       PRES   REMARKS
AMES           LGT SNOW  22  19  89 N9        30.04R FOG     WCI  12  
ANKENY *       LGT SNOW  21  19  93 NW9       30.05R WCI  11          
BOONE *        LGT SNOW  21  21 100 N9        30.03R WCI  11          
CHARITON *     MIX PCPN  23  23 100 NW12      30.02R WCI  12          
DES MOINES     LGT SNOW  21  19  92 NW10      30.04R FOG     WCI  10  
GRINNELL*      FLURRIES  23  22  95 N8        30.01R WCI  14          
KNOXVILLE *    LGT SNOW  23  23 100 NW10      30.02R WCI  12          
MARSHALLTOWN   LGT SNOW  21  20  96 N13       30.01R FOG     WCI   9  
NEWTON *       CLOUDY    23  23 100 NW10      30.01R FOG     WCI  12  
PELLA *        LGT SNOW  23  21  92 NW8       30.03R WCI  14          
PERRY *        LGT SNOW  20  20  97 NW8       30.06R WCI  11          
$$
 
IAZ004>006-015-016-023>025-035-036-180400-
   NORTH CENTRAL IOWA
  
CITY           SKY/WX    TMP DP  RH WIND       PRES   REMARKS
ALGONA *       LGT SNOW  19  19 100 N8        30.06R WCI   9          
CLARION *      CLOUDY    21  19  93 N15       30.05R FOG     WCI   8  
ESTHERVILLE    LGT SNOW  18  16  92 N12       30.09R FOG     WCI   5  
FORT DODGE *   LGT SNOW  20  17  88 N8        30.06R FOG     WCI  10  
MASON CITY     CLOUDY    19  17  92 N12       30.06R WCI   7          
FOREST CITY *  LGT SNOW  21  19  93 N9        30.06R WCI  11          
IOWA FALLS *   LGT SNOW  23  21  93 N9        30.04R WCI  13          
$$

IAZ007>011-017>019-026>030-037>042-050>054-066-180400-
   NORTHEAST IOWA
  
CITY           SKY/WX    TMP DP  RH WIND       PRES   REMARKS
CEDAR RAPIDS   LGT SNOW  22  20  92 NE14      29.98R FOG     WCI   9  
CHARLES CITY * CLOUDY    19  18  93 N12       30.04R WCI   7          
CLINTON *      FLURRIES  23  21  92 NE14      29.97R WCI  11          
DECORAH *      CLOUDY    19  19 100 NE7       30.02R WCI  10          
DUBUQUE        LGT SNOW  21  18  88 NE14      29.97R FOG     WCI   8  
OELWEIN *      CLOUDY    19  19 100 NE12      30.01R WCI   7          
WATERLOO       FLURRIES  22  18  85 N9        30.03R WCI  12          
$$
 
IAZ064-065-067-068-078-180400-
   EAST CENTRAL IOWA
  
CITY           SKY/WX    TMP DP  RH WIND       PRES   REMARKS
DAVENPORT      LGT SNOW  24  20  84 N17       29.98R FOG     WCI  11  
IOWA CITY      LGT SNOW  25  21  85 NE12      30.00R FOG     WCI  14  
MT. PLEASANT * LGT SNOW  28  27  93 NW6       29.98R WCI  22          
MUSCATINE *    LGT SNOW  27  25  93 NW7       29.98R WCI  19          
QUAD CITIES    LGT SNOW  27  22  81 NE13      29.95R WCI  16          
$$
 
IAZ062-063-075>077-085>089-095>099-180400-
   SOUTHEAST IOWA
  
CITY           SKY/WX    TMP DP  RH WIND       PRES   REMARKS
BURLINGTON     CLOUDY    25  21  85 NW6       29.96R FOG     WCI  18  
FAIRFIELD *    CLOUDY    25  23  93 W8        29.98R FOG     WCI  16  
KEOKUK *       MIX PCPN  27  23  86 NW8       29.98R WCI  18          
OSKALOOSA *    LGT SNOW  23  22  96 NW10      30.01R WCI  12          
OTTUMWA        LGT SNOW  24  22  91 NW10      29.99R FOG     WCI  14  
WASHINGTON *   LGT SNOW  25  25 100 NW8       29.99R WCI  16          
$$

ABBREVIATIONS USED IN REMARKS
   TC - TEMPERATURES IN CELSIUS
  WCI - WIND CHILL INDEX
   HX - HEAT INDEX
  VSB - VISIBILITY  
$$